Year,Month,Day,Hour,Minute,Value (Times are PST for temperature in C)
2017,10,29,00,00,6.40
2017,10,29,00,01,6.40
2017,10,29,00,02,6.40
2017,10,29,00,03,6.40
2017,10,29,00,04,6.40
2017,10,29,00,05,6.40
2017,10,29,00,06,6.40
2017,10,29,00,07,6.50
2017,10,29,00,08,6.60
2017,10,29,00,09,6.60
2017,10,29,00,10,6.60
2017,10,29,00,11,6.60
2017,10,29,00,12,6.60
2017,10,29,00,13,6.60
2017,10,29,00,14,6.60
2017,10,29,00,15,6.60
2017,10,29,00,16,6.60
2017,10,29,00,17,6.70
2017,10,29,00,18,6.70
2017,10,29,00,19,6.70
2017,10,29,00,20,6.70
2017,10,29,00,21,6.70
2017,10,29,00,22,6.70
2017,10,29,00,23,6.60
2017,10,29,00,24,6.60
2017,10,29,00,25,6.60
2017,10,29,00,26,6.60
2017,10,29,00,27,6.60
2017,10,29,00,28,6.60
2017,10,29,00,29,6.50
2017,10,29,00,30,6.40
2017,10,29,00,31,6.40
2017,10,29,00,32,6.40
2017,10,29,00,33,6.40
2017,10,29,00,34,6.30
2017,10,29,00,35,6.30
2017,10,29,00,36,6.30
2017,10,29,00,37,6.20
2017,10,29,00,38,6.20
2017,10,29,00,39,6.20
2017,10,29,00,40,6.20
2017,10,29,00,41,6.20
2017,10,29,00,42,6.20
2017,10,29,00,43,6.20
2017,10,29,00,44,6.20
2017,10,29,00,45,6.20
2017,10,29,00,46,6.20
2017,10,29,00,47,6.20
2017,10,29,00,48,6.20
2017,10,29,00,49,6.20
2017,10,29,00,50,6.10
2017,10,29,00,51,6.10
2017,10,29,00,52,6.10
2017,10,29,00,53,6.10
2017,10,29,00,54,6.00
2017,10,29,00,55,6.10
2017,10,29,00,56,6.10
2017,10,29,00,57,6.10
2017,10,29,00,58,6.10
2017,10,29,00,59,6.10
2017,10,29,01,00,6.10
2017,10,29,01,01,6.10
2017,10,29,01,02,6.10
2017,10,29,01,03,6.10
2017,10,29,01,04,6.10
2017,10,29,01,05,6.00
2017,10,29,01,06,6.00
2017,10,29,01,07,6.00
2017,10,29,01,08,6.00
2017,10,29,01,09,6.00
2017,10,29,01,10,6.00
2017,10,29,01,11,6.00
2017,10,29,01,12,6.00
2017,10,29,01,13,6.00
2017,10,29,01,14,6.00
2017,10,29,01,15,5.90
2017,10,29,01,16,5.90
2017,10,29,01,17,5.90
2017,10,29,01,18,5.90
2017,10,29,01,19,5.80
2017,10,29,01,20,5.80
2017,10,29,01,21,5.80
2017,10,29,01,22,5.70
2017,10,29,01,23,5.70
2017,10,29,01,24,5.70
2017,10,29,01,25,5.70
2017,10,29,01,26,5.70
2017,10,29,01,27,5.70
2017,10,29,01,28,5.70
2017,10,29,01,29,5.60
2017,10,29,01,30,5.60
2017,10,29,01,31,5.60
2017,10,29,01,32,5.60
2017,10,29,01,33,5.60
2017,10,29,01,34,5.60
2017,10,29,01,35,5.60
2017,10,29,01,36,5.60
2017,10,29,01,37,5.60
2017,10,29,01,38,5.60
2017,10,29,01,39,5.50
2017,10,29,01,40,5.50
2017,10,29,01,41,5.50
2017,10,29,01,42,5.50
2017,10,29,01,43,5.50
2017,10,29,01,44,5.50
2017,10,29,01,45,5.50
2017,10,29,01,46,5.50
2017,10,29,01,47,5.50
2017,10,29,01,48,5.50
2017,10,29,01,49,5.50
2017,10,29,01,50,5.50
2017,10,29,01,51,5.50
2017,10,29,01,52,5.50
2017,10,29,01,53,5.50
2017,10,29,01,54,5.50
2017,10,29,01,55,5.50
2017,10,29,01,56,5.50
2017,10,29,01,57,5.50
2017,10,29,01,58,5.50
2017,10,29,01,59,5.50
2017,10,29,02,00,5.50
2017,10,29,02,01,5.50
2017,10,29,02,02,5.50
2017,10,29,02,03,5.50
2017,10,29,02,04,5.50
2017,10,29,02,05,5.50
2017,10,29,02,06,5.50
2017,10,29,02,07,5.40
2017,10,29,02,08,5.40
2017,10,29,02,09,5.40
2017,10,29,02,10,5.30
2017,10,29,02,11,5.30
2017,10,29,02,12,5.30
2017,10,29,02,13,5.30
2017,10,29,02,14,5.30
2017,10,29,02,15,5.30
2017,10,29,02,16,5.30
2017,10,29,02,17,5.30
2017,10,29,02,18,5.30
2017,10,29,02,19,5.30
2017,10,29,02,20,5.30
2017,10,29,02,21,5.30
2017,10,29,02,22,5.30
2017,10,29,02,23,5.30
2017,10,29,02,24,5.30
2017,10,29,02,25,5.30
2017,10,29,02,26,5.30
2017,10,29,02,27,5.30
2017,10,29,02,28,5.30
2017,10,29,02,29,5.30
2017,10,29,02,30,5.30
2017,10,29,02,31,5.30
2017,10,29,02,32,5.30
2017,10,29,02,33,5.30
2017,10,29,02,34,5.30
2017,10,29,02,35,5.30
2017,10,29,02,36,5.30
2017,10,29,02,37,5.30
2017,10,29,02,38,5.30
2017,10,29,02,39,5.30
2017,10,29,02,40,5.20
2017,10,29,02,41,5.20
2017,10,29,02,42,5.20
2017,10,29,02,43,5.20
2017,10,29,02,44,5.20
2017,10,29,02,45,5.20
2017,10,29,02,46,5.20
2017,10,29,02,47,5.20
2017,10,29,02,48,5.10
2017,10,29,02,49,5.10
2017,10,29,02,50,5.10
2017,10,29,02,51,5.10
2017,10,29,02,52,5.10
2017,10,29,02,53,5.20
2017,10,29,02,54,5.20
2017,10,29,02,55,5.20
2017,10,29,02,56,5.20
2017,10,29,02,57,5.20
2017,10,29,02,58,5.20
2017,10,29,02,59,5.20
2017,10,29,03,00,5.20
2017,10,29,03,01,5.20
2017,10,29,03,02,5.20
2017,10,29,03,03,5.20
2017,10,29,03,04,5.10
2017,10,29,03,05,5.10
2017,10,29,03,06,5.10
2017,10,29,03,07,5.10
2017,10,29,03,08,5.10
2017,10,29,03,09,5.10
2017,10,29,03,10,5.00
2017,10,29,03,11,4.90
2017,10,29,03,12,4.90
2017,10,29,03,13,4.90
2017,10,29,03,14,4.90
2017,10,29,03,15,4.90
2017,10,29,03,16,4.90
2017,10,29,03,17,4.90
2017,10,29,03,18,4.90
2017,10,29,03,19,4.90
2017,10,29,03,20,4.90
2017,10,29,03,21,4.90
2017,10,29,03,22,4.90
2017,10,29,03,23,4.80
2017,10,29,03,24,4.90
2017,10,29,03,25,4.90
2017,10,29,03,26,4.90
2017,10,29,03,27,4.90
2017,10,29,03,28,4.90
2017,10,29,03,29,4.90
2017,10,29,03,30,4.90
2017,10,29,03,31,4.90
2017,10,29,03,32,4.80
2017,10,29,03,33,4.80
2017,10,29,03,34,4.80
2017,10,29,03,35,4.80
2017,10,29,03,36,4.80
2017,10,29,03,37,4.80
2017,10,29,03,38,4.80
2017,10,29,03,39,4.80
2017,10,29,03,40,4.80
2017,10,29,03,41,4.80
2017,10,29,03,42,4.80
2017,10,29,03,43,4.80
2017,10,29,03,44,4.80
2017,10,29,03,45,4.80
2017,10,29,03,46,4.80
2017,10,29,03,47,4.80
2017,10,29,03,48,4.90
2017,10,29,03,49,4.80
2017,10,29,03,50,4.80
2017,10,29,03,51,4.80
2017,10,29,03,52,4.90
2017,10,29,03,53,4.90
2017,10,29,03,54,4.80
2017,10,29,03,55,4.80
2017,10,29,03,56,4.80
2017,10,29,03,57,4.80
2017,10,29,03,58,4.80
2017,10,29,03,59,4.80
2017,10,29,04,00,4.80
2017,10,29,04,01,4.70
2017,10,29,04,02,4.70
2017,10,29,04,03,4.70
2017,10,29,04,04,4.70
2017,10,29,04,05,4.70
2017,10,29,04,06,4.70
2017,10,29,04,07,4.70
2017,10,29,04,08,4.60
2017,10,29,04,09,4.60
2017,10,29,04,10,4.60
2017,10,29,04,11,4.60
2017,10,29,04,12,4.60
2017,10,29,04,13,4.60
2017,10,29,04,14,4.60
2017,10,29,04,15,4.60
2017,10,29,04,16,4.60
2017,10,29,04,17,4.60
2017,10,29,04,18,4.60
2017,10,29,04,19,4.60
2017,10,29,04,20,4.60
2017,10,29,04,21,4.60
2017,10,29,04,22,4.60
2017,10,29,04,23,4.60
2017,10,29,04,24,4.60
2017,10,29,04,25,4.70
2017,10,29,04,26,4.70
2017,10,29,04,27,4.80
2017,10,29,04,28,4.80
2017,10,29,04,29,4.80
2017,10,29,04,30,4.80
2017,10,29,04,31,4.80
2017,10,29,04,32,4.70
2017,10,29,04,33,4.70
2017,10,29,04,34,4.70
2017,10,29,04,35,4.70
2017,10,29,04,36,4.70
2017,10,29,04,37,4.70
2017,10,29,04,38,4.60
2017,10,29,04,39,4.60
2017,10,29,04,40,4.60
2017,10,29,04,41,4.60
2017,10,29,04,42,4.60
2017,10,29,04,43,4.60
2017,10,29,04,44,4.50
2017,10,29,04,45,4.50
2017,10,29,04,46,4.50
2017,10,29,04,47,4.50
2017,10,29,04,48,4.40
2017,10,29,04,49,4.40
2017,10,29,04,50,4.40
2017,10,29,04,51,4.50
2017,10,29,04,52,4.50
2017,10,29,04,53,4.50
2017,10,29,04,54,4.50
2017,10,29,04,55,4.50
2017,10,29,04,56,4.40
2017,10,29,04,57,4.40
2017,10,29,04,58,4.40
2017,10,29,04,59,4.40
2017,10,29,05,00,4.50
2017,10,29,05,01,4.50
2017,10,29,05,02,4.50
2017,10,29,05,03,4.50
2017,10,29,05,04,4.50
2017,10,29,05,05,4.50
2017,10,29,05,06,4.50
2017,10,29,05,07,4.50
2017,10,29,05,08,4.50
2017,10,29,05,09,4.50
2017,10,29,05,10,4.50
2017,10,29,05,11,4.50
2017,10,29,05,12,4.50
2017,10,29,05,13,4.50
2017,10,29,05,14,4.50
2017,10,29,05,15,4.50
2017,10,29,05,16,4.50
2017,10,29,05,17,4.60
2017,10,29,05,18,4.60
2017,10,29,05,19,4.60
2017,10,29,05,20,4.60
2017,10,29,05,21,4.60
2017,10,29,05,22,4.60
2017,10,29,05,23,4.60
2017,10,29,05,24,4.60
2017,10,29,05,25,4.60
2017,10,29,05,26,4.60
2017,10,29,05,27,4.60
2017,10,29,05,28,4.60
2017,10,29,05,29,4.60
2017,10,29,05,30,4.70
2017,10,29,05,31,4.70
2017,10,29,05,32,4.70
2017,10,29,05,33,4.70
2017,10,29,05,34,4.80
2017,10,29,05,35,4.80
2017,10,29,05,36,4.80
2017,10,29,05,37,4.80
2017,10,29,05,38,4.80
2017,10,29,05,39,4.80
2017,10,29,05,40,4.80
2017,10,29,05,41,4.70
2017,10,29,05,42,4.70
2017,10,29,05,43,4.60
2017,10,29,05,44,4.60
2017,10,29,05,45,4.60
2017,10,29,05,46,4.60
2017,10,29,05,47,4.60
2017,10,29,05,48,4.60
2017,10,29,05,49,4.60
2017,10,29,05,50,4.60
2017,10,29,05,51,4.60
2017,10,29,05,52,4.60
2017,10,29,05,53,4.60
2017,10,29,05,54,4.60
2017,10,29,05,55,4.50
2017,10,29,05,56,4.50
2017,10,29,05,57,4.50
2017,10,29,05,58,4.50
2017,10,29,05,59,4.50
2017,10,29,06,00,4.50
2017,10,29,06,01,4.50
2017,10,29,06,02,4.50
2017,10,29,06,03,4.50
2017,10,29,06,04,4.40
2017,10,29,06,05,4.40
2017,10,29,06,06,4.40
2017,10,29,06,07,4.40
2017,10,29,06,08,4.40
2017,10,29,06,09,4.40
2017,10,29,06,10,4.40
2017,10,29,06,11,4.40
2017,10,29,06,12,4.40
2017,10,29,06,13,4.40
2017,10,29,06,14,4.40
2017,10,29,06,15,4.30
2017,10,29,06,16,4.30
2017,10,29,06,17,4.30
2017,10,29,06,18,4.20
2017,10,29,06,19,4.20
2017,10,29,06,20,4.20
2017,10,29,06,21,4.20
2017,10,29,06,22,4.20
2017,10,29,06,23,4.20
2017,10,29,06,24,4.20
2017,10,29,06,25,4.20
2017,10,29,06,26,4.20
2017,10,29,06,27,4.20
2017,10,29,06,28,4.20
2017,10,29,06,29,4.20
2017,10,29,06,30,4.20
2017,10,29,06,31,4.20
2017,10,29,06,32,4.20
2017,10,29,06,33,4.30
2017,10,29,06,34,4.40
2017,10,29,06,35,4.50
2017,10,29,06,36,4.50
2017,10,29,06,37,4.60
2017,10,29,06,38,4.60
2017,10,29,06,39,4.60
2017,10,29,06,40,4.70
2017,10,29,06,41,4.70
2017,10,29,06,42,4.80
2017,10,29,06,43,4.80
2017,10,29,06,44,4.80
2017,10,29,06,45,4.80
2017,10,29,06,46,4.70
2017,10,29,06,47,4.70
2017,10,29,06,48,4.80
2017,10,29,06,49,4.80
2017,10,29,06,50,4.80
2017,10,29,06,51,4.70
2017,10,29,06,52,4.70
2017,10,29,06,53,4.70
2017,10,29,06,54,4.70
2017,10,29,06,55,4.60
2017,10,29,06,56,4.60
2017,10,29,06,57,4.60
2017,10,29,06,58,4.50
2017,10,29,06,59,4.40
2017,10,29,07,00,4.40
2017,10,29,07,01,4.30
2017,10,29,07,02,4.20
2017,10,29,07,03,4.20
2017,10,29,07,04,4.20
2017,10,29,07,05,4.20
2017,10,29,07,06,4.20
2017,10,29,07,07,4.20
2017,10,29,07,08,4.20
2017,10,29,07,09,4.20
2017,10,29,07,10,4.20
2017,10,29,07,11,4.20
2017,10,29,07,12,4.20
2017,10,29,07,13,4.20
2017,10,29,07,14,4.20
2017,10,29,07,15,4.30
2017,10,29,07,16,4.30
2017,10,29,07,17,4.30
2017,10,29,07,18,4.30
2017,10,29,07,19,4.40
2017,10,29,07,20,4.40
2017,10,29,07,21,4.40
2017,10,29,07,22,4.40
2017,10,29,07,23,4.40
2017,10,29,07,24,4.40
2017,10,29,07,25,4.40
2017,10,29,07,26,4.40
2017,10,29,07,27,4.30
2017,10,29,07,28,4.30
2017,10,29,07,29,4.30
2017,10,29,07,30,4.20
2017,10,29,07,31,4.20
2017,10,29,07,32,4.20
2017,10,29,07,33,4.20
2017,10,29,07,34,4.20
2017,10,29,07,35,4.20
2017,10,29,07,36,4.20
2017,10,29,07,37,4.20
2017,10,29,07,38,4.20
2017,10,29,07,39,4.20
2017,10,29,07,40,4.20
2017,10,29,07,41,4.20
2017,10,29,07,42,4.20
2017,10,29,07,43,4.20
2017,10,29,07,44,4.20
2017,10,29,07,45,4.20
2017,10,29,07,46,4.20
2017,10,29,07,47,4.20
2017,10,29,07,48,4.20
2017,10,29,07,49,4.20
2017,10,29,07,50,4.10
2017,10,29,07,51,4.10
2017,10,29,07,52,4.20
2017,10,29,07,53,4.20
2017,10,29,07,54,4.20
2017,10,29,07,55,4.20
2017,10,29,07,56,4.20
2017,10,29,07,57,4.20
2017,10,29,07,58,4.30
2017,10,29,07,59,4.30
2017,10,29,08,00,4.40
2017,10,29,08,01,4.40
2017,10,29,08,02,4.50
2017,10,29,08,03,4.50
2017,10,29,08,04,4.50
2017,10,29,08,05,4.50
2017,10,29,08,06,4.50
2017,10,29,08,07,4.50
2017,10,29,08,08,4.50
2017,10,29,08,09,4.60
2017,10,29,08,10,4.60
2017,10,29,08,11,4.60
2017,10,29,08,12,4.70
2017,10,29,08,13,4.80
2017,10,29,08,14,4.80
2017,10,29,08,15,4.90
2017,10,29,08,16,4.90
2017,10,29,08,17,4.90
2017,10,29,08,18,4.90
2017,10,29,08,19,4.90
2017,10,29,08,20,4.90
2017,10,29,08,21,4.90
2017,10,29,08,22,4.90
2017,10,29,08,23,5.00
2017,10,29,08,24,5.10
2017,10,29,08,25,5.10
2017,10,29,08,26,5.10
2017,10,29,08,27,5.10
2017,10,29,08,28,5.10
2017,10,29,08,29,5.10
2017,10,29,08,30,5.10
2017,10,29,08,31,5.10
2017,10,29,08,32,5.10
2017,10,29,08,33,5.10
2017,10,29,08,34,5.10
2017,10,29,08,35,5.10
2017,10,29,08,36,5.10
2017,10,29,08,37,5.10
2017,10,29,08,38,5.10
2017,10,29,08,39,5.10
2017,10,29,08,40,5.10
2017,10,29,08,41,5.10
2017,10,29,08,42,5.00
2017,10,29,08,43,4.90
2017,10,29,08,44,4.90
2017,10,29,08,45,4.90
2017,10,29,08,46,4.90
2017,10,29,08,47,4.90
2017,10,29,08,48,5.00
2017,10,29,08,49,5.10
2017,10,29,08,50,5.10
2017,10,29,08,51,5.10
2017,10,29,08,52,5.10
2017,10,29,08,53,5.20
2017,10,29,08,54,5.20
2017,10,29,08,55,5.30
2017,10,29,08,56,5.30
2017,10,29,08,57,5.30
2017,10,29,08,58,5.40
2017,10,29,08,59,5.40
2017,10,29,09,00,5.50
2017,10,29,09,01,5.50
2017,10,29,09,02,5.50
2017,10,29,09,03,5.60
2017,10,29,09,04,5.70
2017,10,29,09,05,5.70
2017,10,29,09,06,5.80
2017,10,29,09,07,5.90
2017,10,29,09,08,6.00
2017,10,29,09,09,6.00
2017,10,29,09,10,6.10
2017,10,29,09,11,6.20
2017,10,29,09,12,6.30
2017,10,29,09,13,6.30
2017,10,29,09,14,6.40
2017,10,29,09,15,6.50
2017,10,29,09,16,6.60
2017,10,29,09,17,6.70
2017,10,29,09,18,6.80
2017,10,29,09,19,6.80
2017,10,29,09,20,7.00
2017,10,29,09,21,7.10
2017,10,29,09,22,7.30
2017,10,29,09,23,7.40
2017,10,29,09,24,7.40
2017,10,29,09,25,7.50
2017,10,29,09,26,7.60
2017,10,29,09,27,7.60
2017,10,29,09,28,7.60
2017,10,29,09,29,7.70
2017,10,29,09,30,7.70
2017,10,29,09,31,7.80
2017,10,29,09,32,7.80
2017,10,29,09,33,7.90
2017,10,29,09,34,8.00
2017,10,29,09,35,8.20
2017,10,29,09,36,8.20
2017,10,29,09,37,8.40
2017,10,29,09,38,8.50
2017,10,29,09,39,8.60
2017,10,29,09,40,8.70
2017,10,29,09,41,8.70
2017,10,29,09,42,8.80
2017,10,29,09,43,8.90
2017,10,29,09,44,8.90
2017,10,29,09,45,8.90
2017,10,29,09,46,8.90
2017,10,29,09,47,9.00
2017,10,29,09,48,9.00
2017,10,29,09,49,9.10
2017,10,29,09,50,9.20
2017,10,29,09,51,9.20
2017,10,29,09,52,9.30
2017,10,29,09,53,9.40
2017,10,29,09,54,9.50
2017,10,29,09,55,9.60
2017,10,29,09,56,9.60
2017,10,29,09,57,9.70
2017,10,29,09,58,9.80
2017,10,29,09,59,9.90
2017,10,29,10,00,10.00
2017,10,29,10,01,10.10
2017,10,29,10,02,10.20
2017,10,29,10,03,10.30
2017,10,29,10,04,10.40
2017,10,29,10,05,10.40
2017,10,29,10,06,10.50
2017,10,29,10,07,10.60
2017,10,29,10,08,10.60
2017,10,29,10,09,10.70
2017,10,29,10,10,10.80
2017,10,29,10,11,10.80
2017,10,29,10,12,10.90
2017,10,29,10,13,10.90
2017,10,29,10,14,11.00
2017,10,29,10,15,11.10
2017,10,29,10,16,11.10
2017,10,29,10,17,11.10
2017,10,29,10,18,11.20
2017,10,29,10,19,11.20
2017,10,29,10,20,11.30
2017,10,29,10,21,11.30
2017,10,29,10,22,11.40
2017,10,29,10,23,11.40
2017,10,29,10,24,11.50
2017,10,29,10,25,11.60
2017,10,29,10,26,11.60
2017,10,29,10,27,11.60
2017,10,29,10,28,11.60
2017,10,29,10,29,11.70
2017,10,29,10,30,11.80
2017,10,29,10,31,11.80
2017,10,29,10,32,11.80
2017,10,29,10,33,11.80
2017,10,29,10,34,11.80
2017,10,29,10,35,11.80
2017,10,29,10,36,11.80
2017,10,29,10,37,11.90
2017,10,29,10,38,12.00
2017,10,29,10,39,12.00
2017,10,29,10,40,12.10
2017,10,29,10,41,12.20
2017,10,29,10,42,12.30
2017,10,29,10,43,12.30
2017,10,29,10,44,12.30
2017,10,29,10,45,12.40
2017,10,29,10,46,12.40
2017,10,29,10,47,12.50
2017,10,29,10,48,12.50
2017,10,29,10,49,12.60
2017,10,29,10,50,12.60
2017,10,29,10,51,12.60
2017,10,29,10,52,12.70
2017,10,29,10,53,12.70
2017,10,29,10,54,12.80
2017,10,29,10,55,12.90
2017,10,29,10,56,13.00
2017,10,29,10,57,13.10
2017,10,29,10,58,13.30
2017,10,29,10,59,13.30
2017,10,29,11,00,13.30
2017,10,29,11,01,13.40
2017,10,29,11,02,13.40
2017,10,29,11,03,13.40
2017,10,29,11,04,13.50
2017,10,29,11,05,13.60
2017,10,29,11,06,13.70
2017,10,29,11,07,13.70
2017,10,29,11,08,13.70
2017,10,29,11,09,13.70
2017,10,29,11,10,13.80
2017,10,29,11,11,13.90
2017,10,29,11,12,13.90
2017,10,29,11,13,13.90
2017,10,29,11,14,13.90
2017,10,29,11,15,14.00
2017,10,29,11,16,14.00
2017,10,29,11,17,14.10
2017,10,29,11,18,14.20
2017,10,29,11,19,14.20
2017,10,29,11,20,14.30
2017,10,29,11,21,14.30
2017,10,29,11,22,14.40
2017,10,29,11,23,14.50
2017,10,29,11,24,14.50
2017,10,29,11,25,14.60
2017,10,29,11,26,14.70
2017,10,29,11,27,14.80
2017,10,29,11,28,14.90
2017,10,29,11,29,15.00
2017,10,29,11,30,15.00
2017,10,29,11,31,15.10
2017,10,29,11,32,15.20
2017,10,29,11,33,15.30
2017,10,29,11,34,15.40
2017,10,29,11,35,15.50
2017,10,29,11,36,15.50
2017,10,29,11,37,15.60
2017,10,29,11,38,15.60
2017,10,29,11,39,15.80
2017,10,29,11,40,15.80
2017,10,29,11,41,15.80
2017,10,29,11,42,15.90
2017,10,29,11,43,15.90
2017,10,29,11,44,16.00
2017,10,29,11,45,16.10
2017,10,29,11,46,16.20
2017,10,29,11,47,16.20
2017,10,29,11,48,16.10
2017,10,29,11,49,16.10
2017,10,29,11,50,16.10
2017,10,29,11,51,16.20
2017,10,29,11,52,16.30
2017,10,29,11,53,16.40
2017,10,29,11,54,16.50
2017,10,29,11,55,16.70
2017,10,29,11,56,16.70
2017,10,29,11,57,16.70
2017,10,29,11,58,16.70
2017,10,29,11,59,16.80
2017,10,29,12,00,16.90
2017,10,29,12,01,16.90
2017,10,29,12,02,17.00
2017,10,29,12,03,17.00
2017,10,29,12,04,17.10
2017,10,29,12,05,17.10
2017,10,29,12,06,17.10
2017,10,29,12,07,17.20
2017,10,29,12,08,17.20
2017,10,29,12,09,17.30
2017,10,29,12,10,17.40
2017,10,29,12,11,17.50
2017,10,29,12,12,17.50
2017,10,29,12,13,17.40
2017,10,29,12,14,17.30
2017,10,29,12,15,17.30
2017,10,29,12,16,17.20
2017,10,29,12,17,17.20
2017,10,29,12,18,17.20
2017,10,29,12,19,17.20
2017,10,29,12,20,17.30
2017,10,29,12,21,17.30
2017,10,29,12,22,17.30
2017,10,29,12,23,17.30
2017,10,29,12,24,17.30
2017,10,29,12,25,17.30
2017,10,29,12,26,17.30
2017,10,29,12,27,17.30
2017,10,29,12,28,17.30
2017,10,29,12,29,17.30
2017,10,29,12,30,17.20
2017,10,29,12,31,17.20
2017,10,29,12,32,17.20
2017,10,29,12,33,17.30
2017,10,29,12,34,17.30
2017,10,29,12,35,17.40
2017,10,29,12,36,17.40
2017,10,29,12,37,17.40
2017,10,29,12,38,17.50
2017,10,29,12,39,17.50
2017,10,29,12,40,17.50
2017,10,29,12,41,17.50
2017,10,29,12,42,17.60
2017,10,29,12,43,17.50
2017,10,29,12,44,17.50
2017,10,29,12,45,17.60
2017,10,29,12,46,17.60
2017,10,29,12,47,17.60
2017,10,29,12,48,17.60
2017,10,29,12,49,17.70
2017,10,29,12,50,17.80
2017,10,29,12,51,17.90
2017,10,29,12,52,17.90
2017,10,29,12,53,17.90
2017,10,29,12,54,17.90
2017,10,29,12,55,17.90
2017,10,29,12,56,18.00
2017,10,29,12,57,18.10
2017,10,29,12,58,18.10
2017,10,29,12,59,18.20
2017,10,29,13,00,18.20
2017,10,29,13,01,18.20
2017,10,29,13,02,18.30
2017,10,29,13,03,18.30
2017,10,29,13,04,18.30
2017,10,29,13,05,18.30
2017,10,29,13,06,18.30
2017,10,29,13,07,18.30
2017,10,29,13,08,18.40
2017,10,29,13,09,18.40
2017,10,29,13,10,18.40
2017,10,29,13,11,18.40
2017,10,29,13,12,18.40
2017,10,29,13,13,18.30
2017,10,29,13,14,18.20
2017,10,29,13,15,18.20
2017,10,29,13,16,18.20
2017,10,29,13,17,18.30
2017,10,29,13,18,18.30
2017,10,29,13,19,18.30
2017,10,29,13,20,18.40
2017,10,29,13,21,18.40
2017,10,29,13,22,18.40
2017,10,29,13,23,18.30
2017,10,29,13,24,18.30
2017,10,29,13,25,18.30
2017,10,29,13,26,18.30
2017,10,29,13,27,18.20
2017,10,29,13,28,18.20
2017,10,29,13,29,18.20
2017,10,29,13,30,18.20
2017,10,29,13,31,18.20
2017,10,29,13,32,18.30
2017,10,29,13,33,18.30
2017,10,29,13,34,18.40
2017,10,29,13,35,18.40
2017,10,29,13,36,18.40
2017,10,29,13,37,18.40
2017,10,29,13,38,18.40
2017,10,29,13,39,18.40
2017,10,29,13,40,18.40
2017,10,29,13,41,18.50
2017,10,29,13,42,18.50
2017,10,29,13,43,18.50
2017,10,29,13,44,18.60
2017,10,29,13,45,18.70
2017,10,29,13,46,18.70
2017,10,29,13,47,18.70
2017,10,29,13,48,18.70
2017,10,29,13,49,18.60
2017,10,29,13,50,18.60
2017,10,29,13,51,18.60
2017,10,29,13,52,18.70
2017,10,29,13,53,18.70
2017,10,29,13,54,18.80
2017,10,29,13,55,18.80
2017,10,29,13,56,18.90
2017,10,29,13,57,18.90
2017,10,29,13,58,18.90
2017,10,29,13,59,19.00
2017,10,29,14,00,19.00
2017,10,29,14,01,18.90
2017,10,29,14,02,18.90
2017,10,29,14,03,18.90
2017,10,29,14,04,18.90
2017,10,29,14,05,18.90
2017,10,29,14,06,18.90
2017,10,29,14,07,18.90
2017,10,29,14,08,18.90
2017,10,29,14,09,18.90
2017,10,29,14,10,18.90
2017,10,29,14,11,18.90
2017,10,29,14,12,18.80
2017,10,29,14,13,18.80
2017,10,29,14,14,18.80
2017,10,29,14,15,18.80
2017,10,29,14,16,18.80
2017,10,29,14,17,18.90
2017,10,29,14,18,18.90
2017,10,29,14,19,18.90
2017,10,29,14,20,18.90
2017,10,29,14,21,18.90
2017,10,29,14,22,18.90
2017,10,29,14,23,18.90
2017,10,29,14,24,18.90
2017,10,29,14,25,18.90
2017,10,29,14,26,18.90
2017,10,29,14,27,18.90
2017,10,29,14,28,18.90
2017,10,29,14,29,18.90
2017,10,29,14,30,18.90
2017,10,29,14,31,18.90
2017,10,29,14,32,18.90
2017,10,29,14,33,18.90
2017,10,29,14,34,18.90
2017,10,29,14,35,18.90
2017,10,29,14,36,18.80
2017,10,29,14,37,18.80
2017,10,29,14,38,18.90
2017,10,29,14,39,18.90
2017,10,29,14,40,18.90
2017,10,29,14,41,18.90
2017,10,29,14,42,18.80
2017,10,29,14,43,18.80
2017,10,29,14,44,18.80
2017,10,29,14,45,18.80
2017,10,29,14,46,18.80
2017,10,29,14,47,18.90
2017,10,29,14,48,18.90
2017,10,29,14,49,18.90
2017,10,29,14,50,19.00
2017,10,29,14,51,19.10
2017,10,29,14,52,19.10
2017,10,29,14,53,19.10
2017,10,29,14,54,19.10
2017,10,29,14,55,19.10
2017,10,29,14,56,19.10
2017,10,29,14,57,19.10
2017,10,29,14,58,19.10
2017,10,29,14,59,19.10
2017,10,29,15,00,19.10
2017,10,29,15,01,18.90
2017,10,29,15,02,18.90
2017,10,29,15,03,18.90
2017,10,29,15,04,18.90
2017,10,29,15,05,18.90
2017,10,29,15,06,18.90
2017,10,29,15,07,18.90
2017,10,29,15,08,19.10
2017,10,29,15,09,19.10
2017,10,29,15,10,19.10
2017,10,29,15,11,19.10
2017,10,29,15,12,19.10
2017,10,29,15,13,19.10
2017,10,29,15,14,19.10
2017,10,29,15,15,19.10
2017,10,29,15,16,19.10
2017,10,29,15,17,19.10
2017,10,29,15,18,19.20
2017,10,29,15,19,19.20
2017,10,29,15,20,19.30
2017,10,29,15,21,19.30
2017,10,29,15,22,19.30
2017,10,29,15,23,19.20
2017,10,29,15,24,19.20
2017,10,29,15,25,19.10
2017,10,29,15,26,19.10
2017,10,29,15,27,19.10
2017,10,29,15,28,19.10
2017,10,29,15,29,19.10
2017,10,29,15,30,19.10
2017,10,29,15,31,19.10
2017,10,29,15,32,19.10
2017,10,29,15,33,19.10
2017,10,29,15,34,19.10
2017,10,29,15,35,19.20
2017,10,29,15,36,19.20
2017,10,29,15,37,19.20
2017,10,29,15,38,19.20
2017,10,29,15,39,19.20
2017,10,29,15,40,19.10
2017,10,29,15,41,19.10
2017,10,29,15,42,19.10
2017,10,29,15,43,19.10
2017,10,29,15,44,19.00
2017,10,29,15,45,18.90
2017,10,29,15,46,18.90
2017,10,29,15,47,18.90
2017,10,29,15,48,19.00
2017,10,29,15,49,19.10
2017,10,29,15,50,19.10
2017,10,29,15,51,19.10
2017,10,29,15,52,19.10
2017,10,29,15,53,19.10
2017,10,29,15,54,19.10
2017,10,29,15,55,19.10
2017,10,29,15,56,19.10
2017,10,29,15,57,19.10
2017,10,29,15,58,19.10
2017,10,29,15,59,19.10
2017,10,29,16,00,19.10
2017,10,29,16,01,19.10
2017,10,29,16,02,19.10
2017,10,29,16,03,19.10
2017,10,29,16,04,19.10
2017,10,29,16,05,19.10
2017,10,29,16,06,19.10
2017,10,29,16,07,19.10
2017,10,29,16,08,19.10
2017,10,29,16,09,19.10
2017,10,29,16,10,19.10
2017,10,29,16,11,19.10
2017,10,29,16,12,19.10
2017,10,29,16,13,19.10
2017,10,29,16,14,19.10
2017,10,29,16,15,19.00
2017,10,29,16,16,18.90
2017,10,29,16,17,18.90
2017,10,29,16,18,18.90
2017,10,29,16,19,18.80
2017,10,29,16,20,18.80
2017,10,29,16,21,18.70
2017,10,29,16,22,18.60
2017,10,29,16,23,18.60
2017,10,29,16,24,18.60
2017,10,29,16,25,18.50
2017,10,29,16,26,18.50
2017,10,29,16,27,18.50
2017,10,29,16,28,18.50
2017,10,29,16,29,18.40
2017,10,29,16,30,18.40
2017,10,29,16,31,18.30
2017,10,29,16,32,18.30
2017,10,29,16,33,18.30
2017,10,29,16,34,18.20
2017,10,29,16,35,18.20
2017,10,29,16,36,18.20
2017,10,29,16,37,18.20
2017,10,29,16,38,18.20
2017,10,29,16,39,18.20
2017,10,29,16,40,18.20
2017,10,29,16,41,18.20
2017,10,29,16,42,18.20
2017,10,29,16,43,18.10
2017,10,29,16,44,18.10
2017,10,29,16,45,18.10
2017,10,29,16,46,18.10
2017,10,29,16,47,18.10
2017,10,29,16,48,18.10
2017,10,29,16,49,18.00
2017,10,29,16,50,17.90
2017,10,29,16,51,17.90
2017,10,29,16,52,17.90
2017,10,29,16,53,17.90
2017,10,29,16,54,17.90
2017,10,29,16,55,17.90
2017,10,29,16,56,17.90
2017,10,29,16,57,17.90
2017,10,29,16,58,17.90
2017,10,29,16,59,17.90
2017,10,29,17,00,17.90
2017,10,29,17,01,17.90
2017,10,29,17,02,17.80
2017,10,29,17,03,17.80
2017,10,29,17,04,17.70
2017,10,29,17,05,17.70
2017,10,29,17,06,17.70
2017,10,29,17,07,17.60
2017,10,29,17,08,17.60
2017,10,29,17,09,17.50
2017,10,29,17,10,17.50
2017,10,29,17,11,17.50
2017,10,29,17,12,17.40
2017,10,29,17,13,17.40
2017,10,29,17,14,17.40
2017,10,29,17,15,17.30
2017,10,29,17,16,17.30
2017,10,29,17,17,17.30
2017,10,29,17,18,17.30
2017,10,29,17,19,17.30
2017,10,29,17,20,17.30
2017,10,29,17,21,17.30
2017,10,29,17,22,17.30
2017,10,29,17,23,17.30
2017,10,29,17,24,17.30
2017,10,29,17,25,17.30
2017,10,29,17,26,17.30
2017,10,29,17,27,17.20
2017,10,29,17,28,17.20
2017,10,29,17,29,17.20
2017,10,29,17,30,17.10
2017,10,29,17,31,17.10
2017,10,29,17,32,17.10
2017,10,29,17,33,17.00
2017,10,29,17,34,17.00
2017,10,29,17,35,17.00
2017,10,29,17,36,17.00
2017,10,29,17,37,17.00
2017,10,29,17,38,16.90
2017,10,29,17,39,16.90
2017,10,29,17,40,16.90
2017,10,29,17,41,16.90
2017,10,29,17,42,16.90
2017,10,29,17,43,16.80
2017,10,29,17,44,16.80
2017,10,29,17,45,16.80